Location: Rumah Long Bangan
(2.8362°N, 113.7519°E)
Time: 06:33:47
(UTC+00:00)

Cosmos 1125 Rocket - Pass Details

Date: 24 October 2021
Orbit: 758 x 779 km, 74.0° (Epoch: 28 November)

Event Time Altitude Azimuth Distance (km) Brightness Sun altitude
Exits shadow 20:08:27 50° 152° (SSE) 964 4.1 -30.1°
Drops below altitude 10° 20:12:19 10° 164° (SSE) 2,298 6.3 -29.1°
Sets 20:14:41 0° 165° (SSE) 3,229 7.1 -28.6°
